Погода в Казыгурте

Казахстан     41°45′19″N   69°22′49″E
темп.,
°C
ветер,
м/с
пор.,
м/с
влажн.,
%
обл.,
%
осадки,
мм/ч
давл.,
гПа
погр.,
м
2 марта, вт
вт200:00+5юв44430 0.0 102129
03:00+4юв23500 0.0 102024
06:00+4ююв33490 0.0 102123
09:00+5ююв345494 0.0 102342
12:00+10ю465465 0.0 1023487
15:00+12юз454783 0.0 1021905
18:00+9зсз226088 0.0 102224
21:00+5ссв3374100 0.0 102460
3 марта, ср
ср300:00+4ссв1171100 0.0 102422
03:00+5в2270100 0.0 102423
06:00+4юв1286100 0.1 102437
09:00+4в0188100 0.1 102449
12:00+8ю467895 0.5 1023726
15:00+9ююз3469100 1.4 1022897
18:00+8ююз4675100 3.1 1021519
21:00+6ю3787100 0.9 1022514
4 марта, чт
чт400:00+5юв4789100 1.2 1022220
03:00+4вюв34798 0.0 102156
06:00+4юв22724 0.0 102125
09:00+5вюв22670 0.0 102128
12:00+12ю464715 0.0 1020972
15:00+14ю794548 0.0 10171798
18:00+12ююз6105558 0.0 1016579
21:00+9ююз6137567 1.5 1018834
5 марта, пт
пт500:00+5зюз6109483 6.7 1023764
03:00+2сз3497100 4.0 1027270
06:00+1с239294 4.4 1031184
09:00+1с228919 0.0 1033130
12:00+5ссз217015 0.0 1031508
15:00+8с22490 0.0 1028971
18:00+8с32570 0.0 1025386
21:00+3св22690 0.0 102528
6 марта, сб
сб600:00+3всв22437 0.0 102326
03:00+4всв333594 0.0 101929
06:00+5св333697 0.0 101649
09:00+6всв3438100 0.0 101479
12:00+13ссз0233100 0.0 1011273
15:00+13ююз4435100 0.0 1011672
18:00+11з2350100 0.0 1012177
21:00+7в2259100 0.0 101324